TimeCST,TemperatureF,Dew PointF,Humidity,Sea Level PressureIn,VisibilityMPH,Wind Direction,Wind SpeedMPH,Gust SpeedMPH,PrecipitationIn,Events,Conditions,WindDirDegrees,DateUTC
12:53 AM,17.1,10.0,74,30.00,10.0,NNW,15.0,-,N/A,,Scattered Clouds,340,2013-01-13 06:53:00
1:53 AM,16.0,9.0,74,30.03,10.0,NW,10.4,-,N/A,,Scattered Clouds,320,2013-01-13 07:53:00
2:01 AM,15.8,8.6,73,29.96,10.0,NNW,13.8,-,N/A,,Mostly Cloudy,330,2013-01-13 08:01:00
2:09 AM,15.8,8.6,73,29.95,10.0,NNW,13.8,-,N/A,,Scattered Clouds,330,2013-01-13 08:09:00
2:51 AM,15.8,8.6,73,29.98,10.0,NW,10.4,-,N/A,,Mostly Cloudy,310,2013-01-13 08:51:00
2:53 AM,15.1,8.1,74,30.03,10.0,NNW,10.4,-,N/A,,Overcast,330,2013-01-13 08:53:00
3:49 AM,14.0,6.8,73,29.97,10.0,NNW,11.5,-,N/A,,Scattered Clouds,330,2013-01-13 09:49:00
3:53 AM,12.9,6.1,74,30.03,10.0,NNW,10.4,-,N/A,,Partly Cloudy,330,2013-01-13 09:53:00
4:53 AM,12.0,5.0,73,30.04,10.0,NW,9.2,-,N/A,,Clear,310,2013-01-13 10:53:00
5:53 AM,12.0,3.9,70,30.07,10.0,NW,8.1,-,N/A,,Overcast,320,2013-01-13 11:53:00
6:53 AM,10.9,3.0,70,30.08,10.0,NW,10.4,-,N/A,,Scattered Clouds,320,2013-01-13 12:53:00
7:53 AM,10.9,3.9,73,30.12,10.0,NW,9.2,-,N/A,,Scattered Clouds,310,2013-01-13 13:53:00
8:53 AM,10.9,3.9,73,30.14,10.0,WNW,12.7,-,N/A,,Mostly Cloudy,300,2013-01-13 14:53:00
9:53 AM,10.9,3.9,73,30.12,10.0,NW,12.7,-,N/A,,Overcast,310,2013-01-13 15:53:00
10:04 AM,10.4,3.2,73,30.06,10.0,NW,13.8,-,N/A,,Overcast,310,2013-01-13 16:04:00
10:53 AM,12.0,3.9,70,30.11,10.0,West,11.5,-,N/A,,Mostly Cloudy,280,2013-01-13 16:53:00
11:12 AM,12.2,3.2,67,30.05,10.0,NW,10.4,-,N/A,,Scattered Clouds,310,2013-01-13 17:12:00
11:21 AM,12.2,3.2,67,30.05,10.0,West,12.7,-,N/A,,Mostly Cloudy,270,2013-01-13 17:21:00
11:53 AM,12.9,3.9,67,30.11,10.0,WNW,15.0,-,N/A,,Mostly Cloudy,290,2013-01-13 17:53:00
12:03 PM,12.2,3.2,67,30.05,10.0,West,13.8,-,N/A,,Scattered Clouds,280,2013-01-13 18:03:00
12:53 PM,12.9,3.9,67,30.11,10.0,West,18.4,-,N/A,,Clear,280,2013-01-13 18:53:00
1:17 PM,12.2,5.0,73,30.04,10.0,WNW,16.1,-,N/A,,Mostly Cloudy,290,2013-01-13 19:17:00
1:31 PM,12.2,3.2,67,30.03,10.0,WNW,20.7,-,N/A,,Scattered Clouds,290,2013-01-13 19:31:00
1:53 PM,14.0,5.0,67,30.09,10.0,WNW,18.4,-,N/A,,Mostly Cloudy,300,2013-01-13 19:53:00
2:22 PM,12.2,3.2,67,30.04,10.0,WNW,20.7,26.5,N/A,,Scattered Clouds,300,2013-01-13 20:22:00
2:53 PM,14.0,5.0,67,30.12,10.0,WNW,16.1,-,N/A,,Mostly Cloudy,290,2013-01-13 20:53:00
3:53 PM,12.9,3.9,67,30.16,10.0,WNW,12.7,-,N/A,,Overcast,290,2013-01-13 21:53:00
4:53 PM,12.0,3.9,70,30.19,10.0,West,13.8,-,N/A,,Overcast,280,2013-01-13 22:53:00
5:21 PM,12.2,3.2,67,30.14,10.0,WNW,12.7,-,N/A,,Partly Cloudy,290,2013-01-13 23:21:00
5:53 PM,12.0,3.9,70,30.22,10.0,WNW,15.0,-,N/A,,Mostly Cloudy,290,2013-01-13 23:53:00
6:42 PM,10.4,3.2,73,30.15,10.0,WNW,16.1,-,N/A,,Partly Cloudy,290,2013-01-14 00:42:00
6:53 PM,10.9,3.0,70,30.24,10.0,West,11.5,-,N/A,,Clear,280,2013-01-14 00:53:00
7:53 PM,10.0,3.0,73,30.25,10.0,WNW,13.8,-,N/A,,Clear,290,2013-01-14 01:53:00
8:53 PM,10.0,3.0,73,30.27,10.0,WNW,9.2,-,N/A,,Clear,290,2013-01-14 02:53:00
9:53 PM,10.0,3.0,73,30.27,10.0,NW,11.5,-,N/A,,Clear,310,2013-01-14 03:53:00
10:53 PM,9.0,3.0,77,30.27,10.0,NW,10.4,-,N/A,,Clear,320,2013-01-14 04:53:00
11:53 PM,8.1,3.0,80,30.31,10.0,WNW,5.8,-,N/A,,Clear,290,2013-01-14 05:53:00